Time,TemperatureF,DewpointF,PressureIn,WindDirection,WindDirectionDegrees,WindSpeedMPH,WindSpeedGustMPH,Humidity,HourlyPrecipIn,Conditions,Clouds,dailyrainin,SolarRadiationWatts/m^2,SoftwareType,DateUTC
2013-07-22 00:01:00,72.0,68.0,29.99,ENE,63,0.0,0.0,88,0.00,,,0.03,0.000000,,2013-07-22 04:01:00,
2013-07-22 00:22:00,72.0,69.0,29.99,NNE,24,2.0,2.0,89,0.00,,,0.00,0.000000,,2013-07-22 04:22:00,
2013-07-22 00:33:00,71.0,68.0,29.99,NE,50,1.0,1.0,89,0.00,,,0.00,0.000000,,2013-07-22 04:33:00,
2013-07-22 00:43:00,71.0,68.0,29.98,SSW,212,1.0,1.0,90,0.00,,,0.00,0.000000,,2013-07-22 04:43:00,
2013-07-22 01:02:00,71.0,68.0,29.98,East,85,1.0,2.0,90,0.00,,,0.00,0.000000,,2013-07-22 05:02:00,
2013-07-22 01:11:00,71.0,68.0,29.98,SSE,160,0.0,1.0,91,0.00,,,0.00,0.000000,,2013-07-22 05:11:00,
2013-07-22 01:22:00,71.0,68.0,29.98,North,3,1.0,1.0,91,0.00,,,0.00,0.000000,,2013-07-22 05:22:00,
2013-07-22 01:32:00,71.0,68.0,29.97,NNE,24,2.0,2.0,91,0.00,,,0.00,0.000000,,2013-07-22 05:32:00,
2013-07-22 01:43:00,70.0,67.0,29.97,NNE,27,3.0,3.0,91,0.00,,,0.00,0.000000,,2013-07-22 05:43:00,
2013-07-22 01:52:00,71.0,68.0,29.96,NNE,26,3.0,4.0,91,0.00,,,0.00,0.000000,,2013-07-22 05:52:00,
2013-07-22 02:01:00,71.0,68.0,29.96,NNE,30,2.0,4.0,91,0.00,,,0.00,0.000000,,2013-07-22 06:01:00,
2013-07-22 02:22:00,71.0,68.0,29.96,East,79,1.0,1.0,90,0.00,,,0.00,0.000000,,2013-07-22 06:22:00,
2013-07-22 02:33:00,70.0,67.0,29.96,ESE,104,0.0,1.0,90,0.00,,,0.00,0.000000,,2013-07-22 06:33:00,
2013-07-22 02:43:00,70.0,67.0,29.97,SE,140,0.0,1.0,90,0.00,,,0.00,0.000000,,2013-07-22 06:43:00,
2013-07-22 02:52:00,70.0,67.0,29.96,ENE,74,0.0,1.0,91,0.00,,,0.00,0.000000,,2013-07-22 06:52:00,
2013-07-22 03:01:00,70.0,67.0,29.96,North,9,0.0,1.0,90,0.00,,,0.00,0.000000,,2013-07-22 07:01:00,
2013-07-22 03:12:00,70.0,67.0,29.97,SE,137,0.0,0.0,90,0.00,,,0.00,0.000000,,2013-07-22 07:12:00,
2013-07-22 03:22:00,70.0,67.0,29.97,NNW,346,1.0,1.0,90,0.00,,,0.00,0.000000,,2013-07-22 07:22:00,
2013-07-22 03:33:00,70.0,67.0,29.97,NW,321,1.0,1.0,90,0.00,,,0.00,0.000000,,2013-07-22 07:33:00,
2013-07-22 03:43:00,70.0,67.0,29.97,ENE,76,0.0,1.0,90,0.00,,,0.00,0.000000,,2013-07-22 07:43:00,
2013-07-22 03:53:00,70.0,67.0,29.96,SSE,158,1.0,1.0,90,0.00,,,0.00,0.000000,,2013-07-22 07:53:00,
2013-07-22 04:02:00,70.0,67.0,29.96,ESE,110,1.0,1.0,91,0.00,,,0.00,0.000000,,2013-07-22 08:02:00,
2013-07-22 04:11:00,70.0,67.0,29.96,East,88,1.0,1.0,91,0.00,,,0.00,0.000000,,2013-07-22 08:11:00,
2013-07-22 04:32:00,70.0,67.0,29.96,NNE,33,0.0,1.0,90,0.00,,,0.00,0.000000,,2013-07-22 08:32:00,
2013-07-22 04:43:00,70.0,67.0,29.96,North,357,1.0,2.0,90,0.00,,,0.00,0.000000,,2013-07-22 08:43:00,
2013-07-22 04:52:00,70.0,67.0,29.96,North,9,1.0,1.0,90,0.00,,,0.00,0.000000,,2013-07-22 08:52:00,
2013-07-22 05:02:00,70.0,67.0,29.96,North,0,1.0,2.0,91,0.00,,,0.00,0.000000,,2013-07-22 09:02:00,
2013-07-22 05:22:00,70.0,67.0,29.96,NE,45,1.0,2.0,91,0.00,,,0.00,0.000000,,2013-07-22 09:22:00,
2013-07-22 05:33:00,70.0,67.0,29.96,SSE,147,1.0,1.0,91,0.00,,,0.00,0.000000,,2013-07-22 09:33:00,
2013-07-22 05:42:00,70.0,67.0,29.96,ESE,105,0.0,0.0,91,0.00,,,0.00,0.000000,,2013-07-22 09:42:00,
2013-07-22 05:52:00,70.0,67.0,29.96,East,91,2.0,2.0,91,0.00,,,0.00,0.000000,,2013-07-22 09:52:00,
2013-07-22 06:02:00,70.0,67.0,29.96,ESE,105,2.0,2.0,91,0.00,,,0.00,0.000000,,2013-07-22 10:02:00,
2013-07-22 06:11:00,71.0,68.0,29.96,ESE,103,3.0,3.0,91,0.00,,,0.00,2.000000,,2013-07-22 10:11:00,
2013-07-22 06:22:00,71.0,68.0,29.96,ESE,104,2.0,2.0,90,0.00,,,0.00,4.000000,,2013-07-22 10:22:00,
2013-07-22 06:32:00,71.0,68.0,29.96,East,87,2.0,3.0,90,0.00,,,0.00,6.000000,,2013-07-22 10:32:00,
2013-07-22 06:43:00,71.0,68.0,29.96,East,98,3.0,4.0,90,0.00,,,0.00,13.000000,,2013-07-22 10:43:00,
2013-07-22 06:52:00,71.0,68.0,29.96,ESE,111,2.0,3.0,89,0.00,,,0.00,21.000000,,2013-07-22 10:52:00,
2013-07-22 07:02:00,71.0,68.0,29.96,East,87,2.0,4.0,89,0.00,,,0.00,30.000000,,2013-07-22 11:02:00,
2013-07-22 07:11:00,71.0,68.0,29.96,ESE,117,2.0,4.0,89,0.00,,,0.00,56.000000,,2013-07-22 11:11:00,
2013-07-22 07:32:00,71.0,68.0,29.96,East,92,3.0,5.0,89,0.00,,,0.00,105.000000,,2013-07-22 11:32:00,
2013-07-22 07:43:00,72.0,68.0,29.96,East,94,4.0,5.0,88,0.00,,,0.00,117.000000,,2013-07-22 11:43:00,
2013-07-22 07:52:00,72.0,68.0,29.97,ESE,104,3.0,6.0,87,0.00,,,0.00,111.000000,,2013-07-22 11:52:00,
2013-07-22 08:02:00,73.0,69.0,29.97,ESE,112,3.0,5.0,86,0.00,,,0.00,236.000000,,2013-07-22 12:02:00,
2013-07-22 08:12:00,73.0,68.0,29.97,ESE,122,3.0,5.0,85,0.00,,,0.00,178.000000,,2013-07-22 12:12:00,
2013-07-22 08:22:00,73.0,68.0,29.97,ESE,123,4.0,6.0,85,0.00,,,0.00,154.000000,,2013-07-22 12:22:00,
2013-07-22 08:33:00,73.0,68.0,29.97,ESE,123,5.0,6.0,85,0.00,,,0.00,178.000000,,2013-07-22 12:33:00,
2013-07-22 08:43:00,74.0,69.0,29.97,East,101,4.0,6.0,84,0.00,,,0.00,288.000000,,2013-07-22 12:43:00,
2013-07-22 08:53:00,75.0,69.0,29.97,ESE,117,3.0,5.0,82,0.00,,,0.00,461.000000,,2013-07-22 12:53:00,
2013-07-22 09:01:00,75.0,68.0,29.98,East,100,4.0,6.0,79,0.00,,,0.00,224.000000,,2013-07-22 13:01:00,
2013-07-22 09:22:00,75.0,68.0,29.97,ESE,105,4.0,6.0,80,0.00,,,0.00,337.000000,,2013-07-22 13:22:00,
2013-07-22 09:43:00,77.0,69.0,29.97,East,89,4.0,5.0,77,0.00,,,0.00,467.000000,,2013-07-22 13:43:00,
2013-07-22 09:53:00,77.0,70.0,29.97,East,84,4.0,6.0,78,0.00,,,0.00,436.000000,,2013-07-22 13:53:00,
2013-07-22 10:22:00,77.0,69.0,29.97,ESE,117,2.0,3.0,77,0.00,,,0.00,245.000000,,2013-07-22 14:22:00,
2013-07-22 10:32:00,77.0,69.0,29.97,ESE,117,2.0,3.0,77,0.00,,,0.00,245.000000,,2013-07-22 14:32:00,
2013-07-22 10:53:00,79.0,70.0,29.96,South,188,4.0,5.0,74,0.00,,,0.00,358.000000,,2013-07-22 14:53:00,
2013-07-22 11:02:00,79.0,70.0,29.96,SSE,159,2.0,4.0,74,0.00,,,0.00,306.000000,,2013-07-22 15:02:00,
2013-07-22 11:22:00,79.0,70.0,29.97,South,181,2.0,4.0,73,0.00,,,0.00,255.000000,,2013-07-22 15:22:00,
2013-07-22 11:33:00,79.0,70.0,29.97,South,181,2.0,4.0,73,0.00,,,0.00,255.000000,,2013-07-22 15:33:00,
2013-07-22 11:52:00,79.0,70.0,29.96,SE,146,2.0,4.0,73,0.00,,,0.00,267.000000,,2013-07-22 15:52:00,
2013-07-22 12:01:00,79.0,70.0,29.96,SSE,165,2.0,5.0,73,0.00,,,0.00,299.000000,,2013-07-22 16:01:00,
2013-07-22 12:11:00,79.0,70.0,29.96,SSE,165,2.0,5.0,73,0.00,,,0.00,299.000000,,2013-07-22 16:11:00,
2013-07-22 12:22:00,79.0,70.0,29.96,SSE,165,2.0,5.0,73,0.00,,,0.00,299.000000,,2013-07-22 16:22:00,
2013-07-22 12:32:00,79.0,70.0,29.96,SSE,165,2.0,5.0,73,0.00,,,0.00,299.000000,,2013-07-22 16:32:00,
2013-07-22 13:02:00,80.0,70.0,29.94,SSW,197,4.0,5.0,72,0.00,,,0.00,229.000000,,2013-07-22 17:02:00,
2013-07-22 13:05:00,81.0,70.0,29.94,South,171,4.0,6.0,69,0.00,,,0.00,233.000000,,2013-07-22 17:05:00,
2013-07-22 13:11:00,80.0,70.0,29.94,SSW,197,4.0,5.0,72,0.00,,,0.00,229.000000,,2013-07-22 17:11:00,
2013-07-22 13:32:00,81.0,70.0,29.94,South,171,4.0,6.0,69,0.00,,,0.00,233.000000,,2013-07-22 17:32:00,
2013-07-22 13:43:00,81.0,70.0,29.94,South,171,4.0,6.0,69,0.00,,,0.00,233.000000,,2013-07-22 17:43:00,
2013-07-22 13:52:00,81.0,70.0,29.94,South,171,4.0,6.0,69,0.00,,,0.00,233.000000,,2013-07-22 17:52:00,
2013-07-22 14:00:00,82.0,69.0,29.91,South,171,6.0,8.0,66,0.00,,,0.00,236.000000,,2013-07-22 18:00:00,
2013-07-22 14:39:00,82.0,69.0,29.91,South,171,6.0,8.0,66,0.00,,,0.00,236.000000,,2013-07-22 18:39:00,
2013-07-22 14:53:00,82.0,69.0,29.91,South,171,6.0,8.0,66,0.00,,,0.00,236.000000,,2013-07-22 18:53:00,
2013-07-22 16:10:00,83.0,67.0,29.86,South,180,5.0,7.0,58,0.00,,,0.00,570.000000,,2013-07-22 20:10:00,
2013-07-22 16:32:00,83.0,67.0,29.86,South,180,5.0,7.0,58,0.00,,,0.00,570.000000,,2013-07-22 20:32:00,
2013-07-22 16:43:00,83.0,67.0,29.86,South,180,5.0,7.0,58,0.00,,,0.00,570.000000,,2013-07-22 20:43:00,
2013-07-22 16:52:00,83.0,67.0,29.86,South,180,5.0,7.0,58,0.00,,,0.00,570.000000,,2013-07-22 20:52:00,
2013-07-22 17:01:00,83.0,67.0,29.86,South,180,5.0,7.0,58,0.00,,,0.00,570.000000,,2013-07-22 21:01:00,
2013-07-22 17:22:00,83.0,67.0,29.84,SSW,192,5.0,6.0,59,0.00,,,0.00,130.000000,,2013-07-22 21:22:00,
2013-07-22 17:43:00,83.0,67.0,29.83,SSW,208,4.0,8.0,59,0.00,,,0.00,331.000000,,2013-07-22 21:43:00,
2013-07-22 17:52:00,83.0,67.0,29.83,SSW,211,5.0,8.0,59,0.00,,,0.00,372.000000,,2013-07-22 21:52:00,
2013-07-22 18:32:00,81.0,67.0,29.83,WSW,255,2.0,3.0,63,0.00,,,0.00,127.000000,,2013-07-22 22:32:00,
2013-07-22 18:43:00,80.0,67.0,29.83,West,265,2.0,4.0,64,0.00,,,0.00,123.000000,,2013-07-22 22:43:00,
2013-07-22 18:52:00,80.0,67.0,29.84,SW,214,2.0,4.0,65,0.00,,,0.00,112.000000,,2013-07-22 22:52:00,
2013-07-22 19:11:00,80.0,68.0,29.84,SSE,164,3.0,4.0,68,0.00,,,0.00,84.000000,,2013-07-22 23:11:00,
2013-07-22 19:32:00,80.0,69.0,29.84,South,175,3.0,4.0,69,0.00,,,0.00,90.000000,,2013-07-22 23:32:00,
2013-07-22 19:43:00,80.0,69.0,29.84,SSE,168,5.0,12.0,70,0.00,,,0.00,54.000000,,2013-07-22 23:43:00,
2013-07-22 19:52:00,78.0,66.0,29.84,South,169,9.0,12.0,66,0.00,,,0.00,28.000000,,2013-07-22 23:52:00,
2013-07-22 20:12:00,76.0,65.0,29.84,South,183,6.0,8.0,68,0.00,,,0.00,36.000000,,2013-07-23 00:12:00,
2013-07-22 20:32:00,75.0,65.0,29.84,South,183,4.0,5.0,72,0.00,,,0.00,2.000000,,2013-07-23 00:32:00,
2013-07-22 22:43:00,73.0,69.0,29.84,ESE,118,4.0,5.0,86,0.00,,,0.00,0.000000,,2013-07-23 02:43:00,
2013-07-22 23:11:00,73.0,70.0,29.83,ESE,115,4.0,5.0,89,0.00,,,0.00,0.000000,,2013-07-23 03:11:00,
2013-07-22 23:22:00,73.0,70.0,29.83,ESE,115,4.0,5.0,89,0.00,,,0.00,0.000000,,2013-07-23 03:22:00,
2013-07-22 23:33:00,72.0,69.0,29.82,ESE,112,3.0,5.0,91,0.10,,,0.10,0.000000,,2013-07-23 03:33:00,
2013-07-22 23:43:00,72.0,69.0,29.83,SE,136,5.0,9.0,91,0.39,,,0.39,0.000000,,2013-07-23 03:43:00,
2013-07-22 23:52:00,72.0,69.0,29.83,ESE,105,2.0,4.0,91,0.49,,,0.49,0.000000,,2013-07-23 03:52:00,